Time,TemperatureF,DewpointF,PressureIn,WindDirection,WindDirectionDegrees,WindSpeedMPH,WindSpeedGustMPH,Humidity,HourlyPrecipIn,Conditions,Clouds,dailyrainin,SoftwareType,DateUTC
2013-07-26 00:00:00,55.0,53.6,30.03,SE,126,0.0,0.0,95,0.00,,,0.00,Wunderground v.1.15,2013-07-26 04:00:00,
2013-07-26 00:05:00,54.9,53.5,30.03,SE,126,0.0,0.0,95,0.00,,,0.00,Wunderground v.1.15,2013-07-26 04:05:00,
2013-07-26 00:10:00,54.7,53.3,30.03,SE,126,0.0,0.0,95,0.00,,,0.00,Wunderground v.1.15,2013-07-26 04:10:00,
2013-07-26 00:15:00,54.2,52.8,30.03,SE,126,0.0,0.0,95,0.00,,,0.00,Wunderground v.1.15,2013-07-26 04:15:00,
2013-07-26 00:20:00,53.9,52.5,30.03,SE,126,0.0,0.0,95,0.00,,,0.00,Wunderground v.1.15,2013-07-26 04:20:00,
2013-07-26 00:25:00,53.6,52.2,30.03,SE,126,0.0,0.0,95,0.00,,,0.00,Wunderground v.1.15,2013-07-26 04:25:00,
2013-07-26 00:35:00,53.6,52.5,30.04,SE,126,0.0,0.0,96,0.00,,,0.00,Wunderground v.1.15,2013-07-26 04:35:00,
2013-07-26 09:25:00,66.5,59.4,30.03,ESE,107,0.0,0.0,78,0.00,,,0.00,Wunderground v.1.15,2013-07-26 13:25:00,
2013-07-26 09:35:00,66.2,58.8,30.03,East,79,0.0,0.0,77,0.00,,,0.00,Wunderground v.1.15,2013-07-26 13:35:00,
2013-07-26 09:40:00,66.2,59.1,30.03,East,79,0.0,0.0,78,0.00,,,0.00,Wunderground v.1.15,2013-07-26 13:40:00,
2013-07-26 09:45:00,66.1,58.7,30.03,East,79,0.0,0.0,77,0.00,,,0.00,Wunderground v.1.15,2013-07-26 13:45:00,
2013-07-26 09:50:00,66.2,58.8,30.03,East,79,0.0,0.0,77,0.00,,,0.00,Wunderground v.1.15,2013-07-26 13:50:00,
2013-07-26 09:55:00,66.7,58.9,30.03,East,79,0.0,0.0,76,0.00,,,0.00,Wunderground v.1.15,2013-07-26 13:55:00,
2013-07-26 10:05:00,67.4,59.6,30.02,East,79,0.0,0.0,76,0.00,,,0.00,Wunderground v.1.15,2013-07-26 14:05:00,
2013-07-26 10:15:00,68.2,58.8,30.02,ENE,78,0.0,0.0,72,0.00,,,0.00,Wunderground v.1.15,2013-07-26 14:15:00,
2013-07-26 10:20:00,68.6,59.2,30.02,ENE,77,0.0,0.0,72,0.00,,,0.00,Wunderground v.1.15,2013-07-26 14:20:00,
2013-07-26 10:30:00,69.4,59.6,30.02,ENE,76,0.0,0.0,71,0.00,,,0.00,Wunderground v.1.15,2013-07-26 14:30:00,
2013-07-26 10:35:00,69.7,61.0,30.02,ENE,62,0.0,0.0,74,0.00,,,0.00,Wunderground v.1.15,2013-07-26 14:35:00,
2013-07-26 10:45:00,69.5,59.7,30.02,North,350,1.0,1.0,71,0.00,,,0.00,Wunderground v.1.15,2013-07-26 14:45:00,
2013-07-26 10:50:00,70.2,60.4,30.02,North,350,1.0,1.0,71,0.00,,,0.00,Wunderground v.1.15,2013-07-26 14:50:00,
2013-07-26 10:55:00,70.4,59.7,30.02,North,350,1.0,1.0,69,0.00,,,0.00,Wunderground v.1.15,2013-07-26 14:55:00,
2013-07-26 11:05:00,70.4,60.1,30.02,NNW,331,1.0,4.0,70,0.00,,,0.00,Wunderground v.1.15,2013-07-26 15:05:00,
2013-07-26 11:15:00,70.8,59.7,30.02,NNW,329,1.0,2.0,68,0.00,,,0.00,Wunderground v.1.15,2013-07-26 15:15:00,
2013-07-26 11:25:00,71.3,57.6,30.02,NW,321,1.0,2.0,62,0.00,,,0.00,Wunderground v.1.15,2013-07-26 15:25:00,
2013-07-26 11:30:00,71.8,59.0,30.02,NW,321,1.0,1.0,64,0.00,,,0.00,Wunderground v.1.15,2013-07-26 15:30:00,
2013-07-26 11:35:00,72.1,61.4,30.02,South,188,1.0,1.0,69,0.00,,,0.00,Wunderground v.1.15,2013-07-26 15:35:00,
2013-07-26 11:45:00,72.1,57.9,30.02,SSW,192,1.0,4.0,61,0.00,,,0.00,Wunderground v.1.15,2013-07-26 15:45:00,
2013-07-26 11:50:00,72.2,60.6,30.01,West,273,1.0,1.0,67,0.00,,,0.00,Wunderground v.1.15,2013-07-26 15:50:00,
2013-07-26 11:55:00,71.6,59.6,30.01,West,276,3.0,3.0,66,0.00,,,0.00,Wunderground v.1.15,2013-07-26 15:55:00,
2013-07-26 12:00:00,71.5,59.1,30.01,West,276,2.0,2.0,65,0.00,,,0.00,Wunderground v.1.15,2013-07-26 16:00:00,
2013-07-26 12:05:00,71.9,58.2,30.01,West,277,1.0,2.0,62,0.00,,,0.00,Wunderground v.1.15,2013-07-26 16:05:00,
2013-07-26 12:15:00,72.1,58.4,30.01,West,278,1.0,5.0,62,0.00,,,0.00,Wunderground v.1.15,2013-07-26 16:15:00,
2013-07-26 12:20:00,72.2,59.3,30.01,West,278,1.0,1.0,64,0.00,,,0.00,Wunderground v.1.15,2013-07-26 16:20:00,
2013-07-26 12:30:00,73.7,59.9,30.01,West,281,1.0,1.0,62,0.00,,,0.00,Wunderground v.1.15,2013-07-26 16:30:00,
2013-07-26 12:35:00,73.6,58.9,30.01,West,281,1.0,1.0,60,0.00,,,0.00,Wunderground v.1.15,2013-07-26 16:35:00,
2013-07-26 12:45:00,73.3,58.6,30.01,West,281,0.0,1.0,60,0.00,,,0.00,Wunderground v.1.15,2013-07-26 16:45:00,
2013-07-26 12:50:00,73.8,57.6,30.01,West,281,0.0,4.0,57,0.00,,,0.00,Wunderground v.1.15,2013-07-26 16:50:00,
2013-07-26 12:55:00,74.0,59.2,30.01,ENE,63,1.0,4.0,60,0.00,,,0.00,Wunderground v.1.15,2013-07-26 16:55:00,
2013-07-26 13:00:00,74.1,57.4,30.01,West,265,1.0,1.0,56,0.00,,,0.00,Wunderground v.1.15,2013-07-26 17:00:00,
2013-07-26 13:05:00,73.9,58.2,30.01,West,267,1.0,1.0,58,0.00,,,0.00,Wunderground v.1.15,2013-07-26 17:05:00,
2013-07-26 13:15:00,74.7,61.7,30.01,West,269,1.0,6.0,64,0.00,,,0.00,Wunderground v.1.15,2013-07-26 17:15:00,
2013-07-26 13:20:00,74.4,57.7,30.01,West,270,1.0,1.0,56,0.00,,,0.00,Wunderground v.1.15,2013-07-26 17:20:00,
2013-07-26 13:30:00,75.0,60.6,30.01,West,271,0.0,1.0,61,0.00,,,0.00,Wunderground v.1.15,2013-07-26 17:30:00,
2013-07-26 13:35:00,75.0,59.7,30.00,West,280,0.0,1.0,59,0.00,,,0.00,Wunderground v.1.15,2013-07-26 17:35:00,
2013-07-26 13:45:00,74.0,60.2,30.00,West,276,0.0,1.0,62,0.00,,,0.00,Wunderground v.1.15,2013-07-26 17:45:00,
2013-07-26 13:55:00,74.6,59.8,30.00,SW,221,1.0,4.0,60,0.00,,,0.00,Wunderground v.1.15,2013-07-26 17:55:00,
2013-07-26 14:00:00,75.0,58.7,30.00,WSW,248,2.0,2.0,57,0.00,,,0.00,Wunderground v.1.15,2013-07-26 18:00:00,
2013-07-26 14:05:00,75.5,59.2,29.99,WSW,248,1.0,2.0,57,0.00,,,0.00,Wunderground v.1.15,2013-07-26 18:05:00,
2013-07-26 14:15:00,76.0,56.0,29.99,WSW,248,0.0,2.0,50,0.00,,,0.00,Wunderground v.1.15,2013-07-26 18:15:00,
2013-07-26 14:20:00,75.8,58.5,29.99,WSW,248,1.0,5.0,55,0.00,,,0.00,Wunderground v.1.15,2013-07-26 18:20:00,
2013-07-26 14:30:00,75.7,60.4,29.99,WSW,252,1.0,2.0,59,0.00,,,0.00,Wunderground v.1.15,2013-07-26 18:30:00,
2013-07-26 14:35:00,76.0,59.2,29.99,WSW,258,1.0,2.0,56,0.00,,,0.00,Wunderground v.1.15,2013-07-26 18:35:00,
2013-07-26 14:45:00,75.6,56.7,29.99,WSW,256,1.0,1.0,52,0.00,,,0.00,Wunderground v.1.15,2013-07-26 18:45:00,
2013-07-26 14:50:00,75.3,60.5,29.99,WSW,256,2.0,7.0,60,0.00,,,0.00,Wunderground v.1.15,2013-07-26 18:50:00,
2013-07-26 14:55:00,75.7,58.4,29.99,West,261,2.0,7.0,55,0.00,,,0.00,Wunderground v.1.15,2013-07-26 18:55:00,
2013-07-26 15:00:00,76.5,58.6,29.99,West,261,1.0,2.0,54,0.00,,,0.00,Wunderground v.1.15,2013-07-26 19:00:00,
2013-07-26 15:05:00,76.6,60.2,29.99,West,266,2.0,2.0,57,0.00,,,0.00,Wunderground v.1.15,2013-07-26 19:05:00,
2013-07-26 15:15:00,75.8,56.9,29.99,West,277,3.0,3.0,52,0.00,,,0.00,Wunderground v.1.15,2013-07-26 19:15:00,
2013-07-26 15:20:00,75.6,55.1,29.99,West,277,3.0,3.0,49,0.00,,,0.00,Wunderground v.1.15,2013-07-26 19:20:00,
2013-07-26 15:30:00,76.2,57.3,29.99,West,277,0.0,0.0,52,0.00,,,0.00,Wunderground v.1.15,2013-07-26 19:30:00,
2013-07-26 15:35:00,76.6,57.7,29.99,West,277,1.0,1.0,52,0.00,,,0.00,Wunderground v.1.15,2013-07-26 19:35:00,
2013-07-26 15:45:00,76.7,57.7,29.99,West,277,2.0,3.0,52,0.00,,,0.00,Wunderground v.1.15,2013-07-26 19:45:00,
2013-07-26 15:50:00,76.0,58.7,29.98,West,278,3.0,3.0,55,0.00,,,0.00,Wunderground v.1.15,2013-07-26 19:50:00,
2013-07-26 15:55:00,76.1,56.7,29.98,West,277,2.0,4.0,51,0.00,,,0.00,Wunderground v.1.15,2013-07-26 19:55:00,
2013-07-26 16:05:00,75.5,54.4,29.99,West,277,3.0,4.0,48,0.00,,,0.00,Wunderground v.1.15,2013-07-26 20:05:00,
2013-07-26 16:15:00,75.8,55.8,29.99,SSE,162,1.0,4.0,50,0.00,,,0.00,Wunderground v.1.15,2013-07-26 20:15:00,
2013-07-26 16:20:00,75.9,57.5,29.98,WNW,288,1.0,3.0,53,0.00,,,0.00,Wunderground v.1.15,2013-07-26 20:20:00,
2013-07-26 16:25:00,76.2,56.2,29.98,West,268,1.0,3.0,50,0.00,,,0.00,Wunderground v.1.15,2013-07-26 20:25:00,
2013-07-26 16:35:00,76.3,60.9,29.98,SW,214,2.0,4.0,59,0.00,,,0.00,Wunderground v.1.15,2013-07-26 20:35:00,
2013-07-26 16:45:00,77.1,60.7,29.98,SW,214,0.0,1.0,57,0.00,,,0.00,Wunderground v.1.15,2013-07-26 20:45:00,
2013-07-26 16:50:00,77.5,59.0,29.98,SW,214,0.0,0.0,53,0.00,,,0.00,Wunderground v.1.15,2013-07-26 20:50:00,
2013-07-26 16:55:00,77.2,58.2,29.98,SW,224,1.0,3.0,52,0.00,,,0.00,Wunderground v.1.15,2013-07-26 20:55:00,
2013-07-26 17:00:00,76.8,57.8,29.98,SW,225,1.0,3.0,52,0.00,,,0.00,Wunderground v.1.15,2013-07-26 21:00:00,
2013-07-26 17:05:00,76.5,56.5,29.98,SW,227,1.0,3.0,50,0.00,,,0.00,Wunderground v.1.15,2013-07-26 21:05:00,
2013-07-26 17:15:00,76.2,59.9,29.98,SW,227,0.0,1.0,57,0.00,,,0.00,Wunderground v.1.15,2013-07-26 21:15:00,
2013-07-26 17:20:00,76.8,58.9,29.97,SW,227,0.0,0.0,54,0.00,,,0.00,Wunderground v.1.15,2013-07-26 21:20:00,
2013-07-26 17:30:00,76.0,59.2,29.97,WSW,238,2.0,2.0,56,0.00,,,0.00,Wunderground v.1.15,2013-07-26 21:30:00,
2013-07-26 17:35:00,75.8,58.0,29.97,WSW,238,1.0,2.0,54,0.00,,,0.00,Wunderground v.1.15,2013-07-26 21:35:00,
2013-07-26 17:45:00,76.3,58.9,29.97,WSW,238,0.0,1.0,55,0.00,,,0.00,Wunderground v.1.15,2013-07-26 21:45:00,
2013-07-26 17:50:00,76.6,58.7,29.97,West,271,1.0,5.0,54,0.00,,,0.00,Wunderground v.1.15,2013-07-26 21:50:00,
2013-07-26 17:55:00,76.0,58.7,29.97,West,271,2.0,5.0,55,0.00,,,0.00,Wunderground v.1.15,2013-07-26 21:55:00,
2013-07-26 18:05:00,75.9,58.6,29.96,West,271,1.0,4.0,55,0.00,,,0.00,Wunderground v.1.15,2013-07-26 22:05:00,
2013-07-26 18:15:00,75.5,59.7,29.96,West,271,1.0,3.0,58,0.00,,,0.00,Wunderground v.1.15,2013-07-26 22:15:00,
2013-07-26 18:25:00,75.3,58.5,29.97,West,271,1.0,2.0,56,0.00,,,0.00,Wunderground v.1.15,2013-07-26 22:25:00,
2013-07-26 18:30:00,75.3,59.0,29.97,West,271,2.0,3.0,57,0.00,,,0.00,Wunderground v.1.15,2013-07-26 22:30:00,
2013-07-26 18:35:00,74.7,58.5,29.97,West,271,2.0,3.0,57,0.00,,,0.00,Wunderground v.1.15,2013-07-26 22:35:00,
2013-07-26 18:45:00,73.6,58.9,29.97,West,277,1.0,2.0,60,0.00,,,0.00,Wunderground v.1.15,2013-07-26 22:45:00,
2013-07-26 18:50:00,73.3,59.5,29.97,West,277,1.0,2.0,62,0.00,,,0.00,Wunderground v.1.15,2013-07-26 22:50:00,
2013-07-26 19:00:00,73.6,59.8,29.97,West,277,0.0,0.0,62,0.00,,,0.00,Wunderground v.1.15,2013-07-26 23:00:00,
2013-07-26 19:05:00,73.7,59.9,29.97,West,277,1.0,1.0,62,0.00,,,0.00,Wunderground v.1.15,2013-07-26 23:05:00,
2013-07-26 19:15:00,73.4,60.9,29.97,West,277,1.0,2.0,65,0.00,,,0.00,Wunderground v.1.15,2013-07-26 23:15:00,
2013-07-26 19:20:00,72.8,61.2,29.96,West,277,0.0,0.0,67,0.00,,,0.00,Wunderground v.1.15,2013-07-26 23:20:00,
2013-07-26 19:25:00,72.5,59.6,29.96,West,277,0.0,0.0,64,0.00,,,0.00,Wunderground v.1.15,2013-07-26 23:25:00,
2013-07-26 19:35:00,70.8,60.5,29.96,West,261,0.0,0.0,70,0.00,,,0.00,Wunderground v.1.15,2013-07-26 23:35:00,
2013-07-26 19:45:00,68.4,60.2,29.96,West,262,0.0,0.0,75,0.00,,,0.00,Wunderground v.1.15,2013-07-26 23:45:00,
2013-07-26 19:55:00,66.9,59.8,29.97,West,262,0.0,0.0,78,0.00,,,0.00,Wunderground v.1.15,2013-07-26 23:55:00,
2013-07-26 20:00:00,66.2,59.8,29.97,West,261,0.0,0.0,80,0.00,,,0.00,Wunderground v.1.15,2013-07-27 00:00:00,
2013-07-26 20:05:00,65.4,59.4,29.97,West,262,0.0,0.0,81,0.00,,,0.00,Wunderground v.1.15,2013-07-27 00:05:00,
2013-07-26 20:15:00,64.1,59.2,29.97,West,262,0.0,0.0,84,0.00,,,0.00,Wunderground v.1.15,2013-07-27 00:15:00,
2013-07-26 20:20:00,63.6,59.0,29.96,West,262,0.0,0.0,85,0.00,,,0.00,Wunderground v.1.15,2013-07-27 00:20:00,
2013-07-26 20:30:00,62.8,58.9,29.96,West,261,0.0,0.0,87,0.00,,,0.00,Wunderground v.1.15,2013-07-27 00:30:00,
2013-07-26 20:35:00,62.5,58.6,29.97,West,261,0.0,0.0,87,0.00,,,0.00,Wunderground v.1.15,2013-07-27 00:35:00,
2013-07-26 20:45:00,61.8,58.2,29.97,West,262,0.0,0.0,88,0.00,,,0.00,Wunderground v.1.15,2013-07-27 00:45:00,
2013-07-26 20:55:00,61.2,58.2,29.98,West,262,0.0,0.0,90,0.00,,,0.00,Wunderground v.1.15,2013-07-27 00:55:00,
2013-07-26 21:00:00,60.8,57.8,29.98,West,262,0.0,0.0,90,0.00,,,0.00,Wunderground v.1.15,2013-07-27 01:00:00,
2013-07-26 21:05:00,60.5,57.9,29.98,West,262,0.0,0.0,91,0.00,,,0.00,Wunderground v.1.15,2013-07-27 01:05:00,
2013-07-26 21:10:00,60.3,57.7,29.98,West,261,0.0,0.0,91,0.00,,,0.00,Wunderground v.1.15,2013-07-27 01:10:00,
2013-07-26 21:20:00,60.0,57.7,29.98,West,262,0.0,0.0,92,0.00,,,0.00,Wunderground v.1.15,2013-07-27 01:20:00,
2013-07-26 21:25:00,59.8,57.5,29.98,West,261,0.0,0.0,92,0.00,,,0.00,Wunderground v.1.15,2013-07-27 01:25:00,
2013-07-26 21:35:00,59.6,57.6,29.98,West,261,0.0,0.0,93,0.00,,,0.00,Wunderground v.1.15,2013-07-27 01:35:00,
2013-07-26 21:45:00,59.7,57.7,29.98,West,261,0.0,1.0,93,0.00,,,0.00,Wunderground v.1.15,2013-07-27 01:45:00,
2013-07-26 21:50:00,59.6,57.6,29.99,West,262,0.0,0.0,93,0.00,,,0.00,Wunderground v.1.15,2013-07-27 01:50:00,
2013-07-26 22:00:00,59.4,57.4,29.99,West,261,0.0,0.0,93,0.00,,,0.00,Wunderground v.1.15,2013-07-27 02:00:00,
2013-07-26 22:05:00,59.2,57.2,29.99,West,262,0.0,0.0,93,0.00,,,0.00,Wunderground v.1.15,2013-07-27 02:05:00,
2013-07-26 22:15:00,58.8,56.8,29.99,West,261,0.0,0.0,93,0.00,,,0.00,Wunderground v.1.15,2013-07-27 02:15:00,
2013-07-26 22:20:00,58.6,56.9,29.99,West,261,0.0,0.0,94,0.00,,,0.00,Wunderground v.1.15,2013-07-27 02:20:00,
2013-07-26 22:30:00,58.4,56.7,29.99,West,262,0.0,0.0,94,0.00,,,0.00,Wunderground v.1.15,2013-07-27 02:30:00,
2013-07-26 22:35:00,58.3,56.6,29.99,West,261,0.0,0.0,94,0.00,,,0.00,Wunderground v.1.15,2013-07-27 02:35:00,
2013-07-26 22:45:00,58.2,56.8,29.99,West,261,0.0,0.0,95,0.00,,,0.00,Wunderground v.1.15,2013-07-27 02:45:00,
2013-07-26 22:55:00,57.9,56.5,29.99,West,261,0.0,0.0,95,0.00,,,0.00,Wunderground v.1.15,2013-07-27 02:55:00,
2013-07-26 23:00:00,57.8,56.4,29.99,West,261,0.0,0.0,95,0.00,,,0.00,Wunderground v.1.15,2013-07-27 03:00:00,
2013-07-26 23:05:00,57.7,56.3,29.99,West,261,0.0,0.0,95,0.00,,,0.00,Wunderground v.1.15,2013-07-27 03:05:00,
2013-07-26 23:15:00,57.5,56.1,29.99,West,262,0.0,0.0,95,0.00,,,0.00,Wunderground v.1.15,2013-07-27 03:15:00,
2013-07-26 23:20:00,57.3,55.9,29.99,West,262,0.0,0.0,95,0.00,,,0.00,Wunderground v.1.15,2013-07-27 03:20:00,
2013-07-26 23:30:00,57.2,56.1,29.99,West,262,0.0,0.0,96,0.00,,,0.00,Wunderground v.1.15,2013-07-27 03:30:00,
2013-07-26 23:35:00,57.2,56.1,29.98,West,262,0.0,0.0,96,0.00,,,0.00,Wunderground v.1.15,2013-07-27 03:35:00,
2013-07-26 23:45:00,56.8,55.7,29.98,West,261,0.0,0.0,96,0.00,,,0.00,Wunderground v.1.15,2013-07-27 03:45:00,
2013-07-26 23:50:00,56.6,55.5,29.98,West,261,0.0,0.0,96,0.00,,,0.00,Wunderground v.1.15,2013-07-27 03:50:00,
2013-07-26 23:55:00,56.5,55.4,29.98,West,262,0.0,0.0,96,0.00,,,0.00,Wunderground v.1.15,2013-07-27 03:55:00,